Location: Brno
(49.2000°N, 16.6330°E)
Time: 11:24:00
(UTC+02:00)

Vanguard 3 - All Passes

Search period start: 31 July 2021 00:00
Search period end: 10 August 2021 00:00
Orbit: 508 x 3261 km, 33.4° (Epoch: 30 July)

Date Brightness Start Highest point End Pass type
(mag) Time Alt. Az. Time Alt. Az. Time Alt. Az.
31 Jul - 00:53:47 10° W 01:08:21 27° SW 01:20:25 10° SSE visible
31 Jul - 17:01:29 10° S 17:11:30 23° SE 17:24:07 10° E daylight
31 Jul - 19:09:40 10° SW 19:24:05 42° SSE 19:41:42 10° E daylight
31 Jul - 21:21:40 10° WSW 21:38:39 48° S 21:56:09 10° ESE visible
31 Jul - 23:36:21 10° W 23:52:59 36° SSW 00:07:36 10° SSE visible
01 Aug - 01:55:45 10° W 02:05:08 16° SW 02:13:22 10° SSW visible
01 Aug - 15:52:16 10° SSE 15:57:22 13° SE 16:03:13 10° ESE daylight
01 Aug - 17:56:21 10° SSW 18:08:33 34° SSE 18:24:32 10° E daylight
01 Aug - 20:06:44 10° WSW 20:22:17 47° S 20:40:25 10° ESE daylight
01 Aug - 22:19:58 10° W 22:37:01 43° SSW 22:53:34 10° SE visible
02 Aug - 00:36:17 10° W 00:50:25 26° SW 01:02:46 10° S visible
02 Aug - 16:44:13 10° S 16:53:47 24° SE 17:06:21 10° E daylight
02 Aug - 18:52:37 10° SW 19:06:14 42° SSE 19:23:54 10° ESE daylight
02 Aug - 21:04:27 10° WSW 21:20:42 47° S 21:38:34 10° ESE visible
02 Aug - 23:18:55 10° W 23:35:01 34° SSW 23:50:00 10° SSE visible
03 Aug - 01:38:56 10° WSW 01:47:14 14° SW 01:54:51 10° SSW visible
03 Aug - 15:34:26 10° SSE 15:39:46 14° SE 15:46:04 10° ESE daylight
03 Aug - 17:39:22 10° SSW 17:50:50 35° SSE 18:06:37 10° E daylight
03 Aug - 19:49:43 10° WSW 20:04:24 47° S 20:22:39 10° ESE daylight
03 Aug - 22:02:42 10° W 22:19:02 41° SSW 22:35:55 10° SE visible
04 Aug - 00:18:59 10° W 00:32:27 24° SW 00:44:50 10° S visible
04 Aug - 16:27:10 10° S 16:36:10 25° SE 16:48:29 10° E daylight
04 Aug - 18:35:43 10° SW 18:48:30 43° SSE 19:05:57 10° ESE daylight
04 Aug - 20:47:23 10° WSW 21:02:47 45° S 21:20:46 10° SE visible
04 Aug - 23:01:39 10° W 23:17:00 32° SSW 23:32:11 10° SSE visible
05 Aug - 01:22:45 10° WSW 01:29:19 13° SW 01:35:35 10° SSW visible
05 Aug - 15:17:00 10° SSE 15:22:16 14° SE 15:28:41 10° ESE daylight
05 Aug - 17:22:32 10° SSW 17:33:14 35° SSE 17:48:36 10° E daylight
05 Aug - 19:32:51 10° WSW 19:46:38 46° S 20:04:43 10° ESE daylight
05 Aug - 21:45:37 10° W 22:01:05 39° SSW 22:18:04 10° SE visible
06 Aug - 00:01:58 10° W 00:14:28 21° SW 00:26:33 10° S visible
06 Aug - 16:10:18 10° SSW 16:18:42 25° SE 16:30:33 10° E daylight
06 Aug - 18:18:59 10° SW 18:30:52 42° SSE 18:47:54 10° ESE daylight
06 Aug - 20:30:30 10° WSW 20:44:57 44° S 21:02:49 10° SE visible
06 Aug - 22:44:36 10° W 22:59:02 30° SSW 23:14:05 10° SSE visible
07 Aug - 01:08:13 10° WSW 01:11:23 11° SW 01:14:32 10° SW visible
07 Aug - 14:59:52 10° SSE 15:04:54 15° SE 15:11:09 10° ESE daylight
07 Aug - 17:05:51 10° SW 17:15:45 35° SSE 17:30:31 10° E daylight
07 Aug - 19:16:06 10° WSW 19:28:57 45° S 19:46:39 10° ESE daylight
07 Aug - 21:28:42 10° W 21:43:11 37° SSW 21:59:59 10° SE visible
07 Aug - 23:45:16 10° WSW 23:56:31 19° SW 00:07:51 10° S visible
08 Aug - 15:53:36 10° SSW 16:01:22 25° SE 16:12:35 10° E daylight
08 Aug - 18:02:22 10° SW 18:13:22 42° S 18:29:46 10° ESE daylight
08 Aug - 20:13:44 10° WSW 20:27:12 41° SSW 20:44:41 10° SE daylight
08 Aug - 22:27:47 10° W 22:41:07 27° SSW 22:55:41 10° SSE visible
09 Aug - 14:42:58 10° SSE 14:47:40 15° SE 14:53:35 10° ESE daylight
09 Aug - 16:49:19 10° SW 16:58:25 35° SSE 17:12:23 10° ESE daylight
09 Aug - 18:59:30 10° WSW 19:11:23 43° S 19:28:27 10° ESE daylight
09 Aug - 21:11:57 10° W 21:25:23 34° SSW 21:41:40 10° SSE visible
09 Aug - 23:29:02 10° WSW 23:38:37 16° SW 23:48:35 10° SSW visible
